This is the latest recevied weather packets stored in our database for station/object N5PRN. If no packets are shown the sender has not sent any weather packets the latest 1 day(s).
| Time | Temp. | Humidity | Pressure | Rain* | Wind** | Luminosity | Snow |
|---|---|---|---|---|---|---|---|
| 1836274639 | 22.78° C | 89% | 1016.5 hPa | 0 mm | 0 m/s | 0 W/m² | - |
| 1836274492 | 22.22° C | 89% | 1016.4 hPa | 0 mm | 0 m/s | 0 W/m² | - |
| 1836274337 | 22.78° C | 88% | 1016.5 hPa | 0 mm | 0 m/s | 0 W/m² | - |
| 1836274191 | 22.22° C | 89% | 1016.4 hPa | 0 mm | 0 m/s | 0 W/m² | - |
| 1836274036 | 22.78° C | 88% | 1016.4 hPa | 0 mm | 0 m/s | 0 W/m² | - |
| 1778054700 | 22.78° C | 97% | 1010.1 hPa | 0 mm | 1.34 m/s, 214° | 0 W/m² | - |
| 1778054397 | 22.78° C | 97% | 1010.1 hPa | 0 mm | 0.45 m/s, 228° | 0 W/m² | - |
| 1778054095 | 22.78° C | 97% | 1010.2 hPa | 0 mm | 1.34 m/s, 219° | 0 W/m² | - |
| 1778053791 | 22.78° C | 96% | 1010 hPa | 0 mm | 0.45 m/s, 223° | 0 W/m² | - |
| 1778053489 | 22.78° C | 96% | 1009.7 hPa | 0 mm | 1.34 m/s, 201° | 0 W/m² | - |
| 1778053186 | 22.78° C | 96% | 1010 hPa | 0 mm | 0 m/s | 0 W/m² | - |
| 1778052884 | 22.78° C | 96% | 1010.2 hPa | 0 mm | 1.34 m/s, 212° | 0 W/m² | - |
| 1778052581 | 22.78° C | 96% | 1010.2 hPa | 0 mm | 0.45 m/s, 197° | 0 W/m² | - |
| 1778052278 | 22.78° C | 96% | 1010.2 hPa | 0 mm | 0.45 m/s, 220° | 0 W/m² | - |
| 1778051976 | 22.78° C | 96% | 1010.1 hPa | 0 mm | 2.68 m/s, 251° | 0 W/m² | - |
| 1778051674 | 22.78° C | 96% | 1010.1 hPa | 0 mm | 0.45 m/s, 213° | 0 W/m² | - |
| 1778051370 | 22.78° C | 96% | 1010.1 hPa | 0 mm | 0.89 m/s, 243° | 0 W/m² | - |
| 1778051067 | 22.78° C | 95% | 1009.9 hPa | 0 mm | 0.89 m/s, 177° | 0 W/m² | - |
| 1778050764 | 22.78° C | 95% | 1010.3 hPa | 0 mm | 0.45 m/s, 209° | 0 W/m² | - |
| 1778050461 | 22.78° C | 95% | 1010.1 hPa | 0 mm | 0.89 m/s, 197° | 0 W/m² | - |
| 1778050158 | 22.78° C | 95% | 1009.9 hPa | 0 mm | 0.89 m/s, 192° | 0 W/m² | - |
| 1778049854 | 23.33° C | 95% | 1010.2 hPa | 0 mm | 0.45 m/s, 200° | 0 W/m² | - |
| 1778049551 | 23.33° C | 95% | 1010.1 hPa | 0 mm | 0.45 m/s, 225° | 0 W/m² | - |
| 1778049249 | 23.33° C | 95% | 1009.9 hPa | 0 mm | 0.89 m/s, 208° | 0 W/m² | - |
| 1778048947 | 23.33° C | 95% | 1009.9 hPa | 0 mm | 0.89 m/s, 235° | 0 W/m² | - |
* Rain latest hour (hover to see other rain measurements)
** Current wind speed in m/s (hover to see current wind gust speed)